Terminal Aerodrome Forecast
Issued by NWS Denver/Boulder, CO

Home | Current Version | Previous Version | Text Only | Print | Product List | Glossary On
Versions: 1 2 3 4 5 6 7 8 9 10 11 12 13 14 15 16 17 18 19 20 21 22 23 24 25 26 27 28 29 30 31 32 33 34 35 36 37 38 39 40 41 42 43 44 45 46 47 48 49 50
255
FTUS45 KBOU 120528
TAFDEN
TAF
KDEN 120528Z 1206/1312 18012KT P6SM SCT220
     FM120900 23009KT P6SM FEW120 SCT220
     FM121600 16010KT P6SM FEW080 SCT120 BKN220
     FM122000 07007KT P6SM FEW140 SCT220
     FM130200 19009KT P6SM SCT220=

USA.gov is the U.S. government's official web portal to all federal, state and local government web resources and services.